This is the latest recevied weather packets stored in our database for station/object CX5ACA-13. If no packets are shown the sender has not sent any weather packets the latest 10 day(s).
| Time | Temp. | Humidity | Pressure | Rain* | Wind** | Luminosity | Snow |
|---|---|---|---|---|---|---|---|
| 1777579962 | 25° C | 48% | 1014.7 hPa | 0 mm | - | 60 W/m² | - |
| 1777579657 | 25° C | 48% | 1014.6 hPa | 0 mm | - | 69 W/m² | - |
| 1777579356 | 25° C | 48% | 1014.5 hPa | 0 mm | - | 78 W/m² | - |
| 1777579051 | 25° C | 48% | 1014.7 hPa | 0 mm | - | 89 W/m² | - |
| 1777578746 | 25° C | 49% | 1014.6 hPa | 0 mm | - | 101 W/m² | - |
| 1777578446 | 25° C | 50% | 1014.7 hPa | 0 mm | - | 113 W/m² | - |
| 1777578142 | 24.44° C | 53% | 1014.7 hPa | 0 mm | - | 125 W/m² | - |
| 1777577838 | 25° C | 53% | 1014.9 hPa | 0 mm | - | 139 W/m² | - |
| 1777577534 | 24.44° C | 54% | 1014.5 hPa | 0 mm | - | 150 W/m² | - |
| 1777577231 | 25° C | 54% | 1014.7 hPa | 0 mm | - | 157 W/m² | - |
| 1777576927 | 24.44° C | 54% | 1014.7 hPa | 0 mm | - | 169 W/m² | - |
| 1777576623 | 25° C | 53% | 1014.8 hPa | 0 mm | - | 186 W/m² | - |
| 1777576318 | 25° C | 53% | 1014.7 hPa | 0 mm | - | 200 W/m² | - |
| 1777576014 | 24.44° C | 52% | 1014.6 hPa | 0 mm | - | 213 W/m² | - |
| 1777575711 | 25° C | 51% | 1014.9 hPa | 0 mm | - | 228 W/m² | - |
| 1777575407 | 25.56° C | 47% | 1014.8 hPa | 0 mm | - | 240 W/m² | - |
| 1777575103 | 25° C | 46% | 1014.7 hPa | 0 mm | - | 255 W/m² | - |
| 1777574798 | 25° C | 47% | 1014.8 hPa | 0 mm | - | 268 W/m² | - |
| 1777574497 | 25° C | 47% | 1014.8 hPa | 0 mm | - | 278 W/m² | - |
| 1777574192 | 25.56° C | 43% | 1014.8 hPa | 0 mm | - | 293 W/m² | - |
| 1777573887 | 25° C | 46% | 1014.9 hPa | 0 mm | - | 307 W/m² | - |
| 1777573582 | 25° C | 47% | 1015 hPa | 0 mm | - | 317 W/m² | - |
| 1777573279 | 25° C | 48% | 1014.8 hPa | 0 mm | - | 330 W/m² | - |
| 1777572975 | 25° C | 46% | 1014.8 hPa | 0 mm | - | 342 W/m² | - |
| 1777572671 | 24.44° C | 47% | 1014.9 hPa | 0 mm | - | 355 W/m² | - |
* Rain latest hour (hover to see other rain measurements)
** Current wind speed in m/s (hover to see current wind gust speed)